Time,TemperatureF,DewpointF,PressureIn,WindDirection,WindDirectionDegrees,WindSpeedMPH,WindSpeedGustMPH,Humidity,HourlyPrecipIn,Conditions,Clouds,dailyrainin,SolarRadiationWatts/m^2,SoftwareType,DateUTC
2013-02-27 00:02:00,41.9,39.2,30.23,SSW,197,2.0,2.0,90,0.00,,,0.01,0,Wunderground v.1.15,2013-02-27 08:02:00,
2013-02-27 00:08:00,41.9,39.2,30.24,SSW,197,1.0,2.0,90,0.00,,,0.00,0,Wunderground v.1.15,2013-02-27 08:08:00,
2013-02-27 00:13:00,41.9,39.2,30.24,SSW,197,0.0,1.0,90,0.00,,,0.00,0,Wunderground v.1.15,2013-02-27 08:13:00,
2013-02-27 00:19:00,41.9,39.2,30.23,SSW,196,0.0,0.0,90,0.00,,,0.00,0,Wunderground v.1.15,2013-02-27 08:19:00,
2013-02-27 00:24:00,41.9,39.5,30.23,SSW,196,0.0,0.0,91,0.00,,,0.00,0,Wunderground v.1.15,2013-02-27 08:24:00,
2013-02-27 00:29:00,41.9,39.5,30.23,SSW,196,0.0,1.0,91,0.00,,,0.01,0,Wunderground v.1.15,2013-02-27 08:29:00,
2013-02-27 00:35:00,41.8,39.4,30.23,SSW,207,0.0,3.0,91,0.00,,,0.01,0,Wunderground v.1.15,2013-02-27 08:35:00,
2013-02-27 00:40:00,41.8,39.6,30.23,SSW,207,1.0,2.0,92,0.00,,,0.01,0,Wunderground v.1.15,2013-02-27 08:40:00,
2013-02-27 00:45:00,41.8,39.6,30.24,SSW,207,1.0,2.0,92,0.00,,,0.01,0,Wunderground v.1.15,2013-02-27 08:45:00,
2013-02-27 00:51:00,41.6,39.4,30.24,SSW,207,0.0,0.0,92,0.00,,,0.01,0,Wunderground v.1.15,2013-02-27 08:51:00,
2013-02-27 00:56:00,41.6,39.4,30.24,SSW,207,0.0,0.0,92,0.00,,,0.01,0,Wunderground v.1.15,2013-02-27 08:56:00,
2013-02-27 01:01:00,41.6,39.4,30.23,SSW,207,0.0,2.0,92,0.00,,,0.01,0,Wunderground v.1.15,2013-02-27 09:01:00,
2013-02-27 01:06:00,41.6,39.7,30.24,SSW,207,0.0,2.0,93,0.00,,,0.01,0,Wunderground v.1.15,2013-02-27 09:06:00,
2013-02-27 01:11:00,41.3,39.4,30.23,SSW,207,0.0,0.0,93,0.00,,,0.01,0,Wunderground v.1.15,2013-02-27 09:11:00,
2013-02-27 01:16:00,41.2,39.3,30.23,SSW,207,0.0,0.0,93,0.00,,,0.01,0,Wunderground v.1.15,2013-02-27 09:16:00,
2013-02-27 01:21:00,41.1,39.2,30.23,SSW,207,0.0,0.0,93,0.00,,,0.01,0,Wunderground v.1.15,2013-02-27 09:21:00,
2013-02-27 01:26:00,41.2,39.6,30.23,SSW,207,0.0,2.0,94,0.00,,,0.01,0,Wunderground v.1.15,2013-02-27 09:26:00,
2013-02-27 01:31:00,41.3,39.7,30.24,SSW,207,0.0,0.0,94,0.00,,,0.01,0,Wunderground v.1.15,2013-02-27 09:31:00,
2013-02-27 01:36:00,41.3,39.7,30.23,SSW,207,0.0,0.0,94,0.00,,,0.01,0,Wunderground v.1.15,2013-02-27 09:36:00,
2013-02-27 01:41:00,41.3,39.7,30.24,SSW,207,0.0,0.0,94,0.00,,,0.01,0,Wunderground v.1.15,2013-02-27 09:41:00,
2013-02-27 01:47:00,41.5,39.9,30.24,SE,142,0.0,2.0,94,0.00,,,0.01,0,Wunderground v.1.15,2013-02-27 09:47:00,
2013-02-27 01:52:00,41.5,39.9,30.24,NE,56,1.0,2.0,94,0.00,,,0.01,0,Wunderground v.1.15,2013-02-27 09:52:00,
2013-02-27 01:57:00,41.5,39.9,30.24,ENE,57,1.0,2.0,94,0.00,,,0.01,0,Wunderground v.1.15,2013-02-27 09:57:00,
2013-02-27 02:02:00,41.5,39.9,30.24,ENE,57,1.0,1.0,94,0.00,,,0.01,0,Wunderground v.1.15,2013-02-27 10:02:00,
2013-02-27 02:07:00,41.6,40.0,30.24,ENE,57,0.0,1.0,94,0.00,,,0.01,0,Wunderground v.1.15,2013-02-27 10:07:00,
2013-02-27 02:13:00,41.8,39.9,30.24,ENE,57,1.0,2.0,93,0.00,,,0.01,0,Wunderground v.1.15,2013-02-27 10:13:00,
2013-02-27 02:18:00,41.9,40.0,30.24,ENE,57,0.0,2.0,93,0.00,,,0.01,0,Wunderground v.1.15,2013-02-27 10:18:00,
2013-02-27 02:24:00,42.1,40.2,30.24,ENE,57,0.0,0.0,93,0.00,,,0.01,0,Wunderground v.1.15,2013-02-27 10:24:00,
2013-02-27 02:29:00,42.1,40.2,30.25,ENE,57,0.0,0.0,93,0.00,,,0.01,0,Wunderground v.1.15,2013-02-27 10:29:00,
2013-02-27 02:34:00,42.2,40.0,30.25,ENE,57,0.0,0.0,92,0.00,,,0.01,0,Wunderground v.1.15,2013-02-27 10:34:00,
2013-02-27 02:39:00,42.2,40.0,30.25,ENE,57,0.0,0.0,92,0.00,,,0.01,0,Wunderground v.1.15,2013-02-27 10:39:00,
2013-02-27 02:44:00,42.2,40.0,30.25,ENE,57,0.0,1.0,92,0.00,,,0.01,0,Wunderground v.1.15,2013-02-27 10:44:00,
2013-02-27 02:49:00,42.2,40.0,30.25,ENE,57,0.0,1.0,92,0.00,,,0.01,0,Wunderground v.1.15,2013-02-27 10:49:00,
2013-02-27 02:54:00,42.2,40.0,30.25,ENE,57,1.0,2.0,92,0.00,,,0.01,0,Wunderground v.1.15,2013-02-27 10:54:00,
2013-02-27 02:59:00,42.3,40.1,30.25,ENE,57,1.0,2.0,92,0.00,,,0.01,0,Wunderground v.1.15,2013-02-27 10:59:00,
2013-02-27 03:05:00,42.5,40.1,30.25,ENE,57,1.0,2.0,91,0.00,,,0.01,0,Wunderground v.1.15,2013-02-27 11:05:00,
2013-02-27 03:11:00,42.6,40.2,30.25,NNW,327,1.0,2.0,91,0.00,,,0.01,0,Wunderground v.1.15,2013-02-27 11:11:00,
2013-02-27 03:16:00,42.6,39.9,30.25,NNW,327,1.0,2.0,90,0.00,,,0.01,0,Wunderground v.1.15,2013-02-27 11:16:00,
2013-02-27 03:21:00,42.8,40.1,30.25,NNW,327,0.0,2.0,90,0.00,,,0.01,0,Wunderground v.1.15,2013-02-27 11:21:00,
2013-02-27 03:26:00,42.8,40.1,30.25,NNW,327,1.0,2.0,90,0.00,,,0.01,0,Wunderground v.1.15,2013-02-27 11:26:00,
2013-02-27 03:31:00,42.8,39.8,30.25,NNW,327,0.0,0.0,89,0.00,,,0.01,0,Wunderground v.1.15,2013-02-27 11:31:00,
2013-02-27 03:37:00,42.8,40.1,30.25,NNW,327,0.0,0.0,90,0.00,,,0.01,0,Wunderground v.1.15,2013-02-27 11:37:00,
2013-02-27 03:42:00,42.8,40.1,30.25,NNW,327,0.0,0.0,90,0.00,,,0.01,0,Wunderground v.1.15,2013-02-27 11:42:00,
2013-02-27 03:47:00,42.8,40.1,30.25,NNW,327,0.0,0.0,90,0.00,,,0.01,0,Wunderground v.1.15,2013-02-27 11:47:00,
2013-02-27 03:52:00,42.9,40.2,30.25,NNW,327,0.0,0.0,90,0.00,,,0.01,0,Wunderground v.1.15,2013-02-27 11:52:00,
2013-02-27 03:57:00,43.1,40.4,30.25,NNW,327,0.0,0.0,90,0.00,,,0.01,0,Wunderground v.1.15,2013-02-27 11:57:00,
2013-02-27 04:03:00,43.2,40.5,30.25,NNW,327,0.0,2.0,90,0.00,,,0.01,0,Wunderground v.1.15,2013-02-27 12:03:00,
2013-02-27 04:08:00,43.1,40.4,30.25,NNW,327,0.0,2.0,90,0.00,,,0.01,0,Wunderground v.1.15,2013-02-27 12:08:00,
2013-02-27 04:13:00,43.1,40.4,30.25,NNW,327,0.0,0.0,90,0.00,,,0.01,0,Wunderground v.1.15,2013-02-27 12:13:00,
2013-02-27 04:18:00,42.9,40.2,30.25,NNW,327,0.0,0.0,90,0.00,,,0.01,0,Wunderground v.1.15,2013-02-27 12:18:00,
2013-02-27 04:23:00,42.8,40.4,30.25,NNW,327,0.0,2.0,91,0.00,,,0.01,0,Wunderground v.1.15,2013-02-27 12:23:00,
2013-02-27 04:29:00,42.5,40.3,30.25,NNW,327,1.0,2.0,92,0.00,,,0.02,0,Wunderground v.1.15,2013-02-27 12:29:00,
2013-02-27 04:34:00,42.3,40.1,30.25,NNW,327,1.0,2.0,92,0.00,,,0.02,0,Wunderground v.1.15,2013-02-27 12:34:00,
2013-02-27 04:39:00,42.2,40.3,30.26,NNW,328,1.0,2.0,93,0.00,,,0.02,0,Wunderground v.1.15,2013-02-27 12:39:00,
2013-02-27 04:44:00,42.1,40.2,30.26,NNW,327,1.0,1.0,93,0.00,,,0.02,0,Wunderground v.1.15,2013-02-27 12:44:00,
2013-02-27 04:49:00,41.9,40.3,30.26,NNW,327,0.0,1.0,94,0.00,,,0.02,0,Wunderground v.1.15,2013-02-27 12:49:00,
2013-02-27 04:55:00,41.9,40.3,30.26,NNW,327,0.0,2.0,94,0.00,,,0.02,0,Wunderground v.1.15,2013-02-27 12:55:00,
2013-02-27 05:00:00,41.9,40.3,30.26,NNE,19,0.0,1.0,94,0.00,,,0.02,0,Wunderground v.1.15,2013-02-27 13:00:00,
2013-02-27 05:05:00,41.8,40.5,30.26,NNE,32,1.0,1.0,95,0.00,,,0.02,0,Wunderground v.1.15,2013-02-27 13:05:00,
2013-02-27 05:11:00,41.8,40.5,30.26,NNE,32,1.0,2.0,95,0.00,,,0.02,0,Wunderground v.1.15,2013-02-27 13:11:00,
2013-02-27 05:17:00,41.8,40.5,30.27,NNE,32,1.0,2.0,95,0.00,,,0.02,0,Wunderground v.1.15,2013-02-27 13:17:00,
2013-02-27 05:22:00,41.8,40.5,30.27,NNE,32,0.0,2.0,95,0.00,,,0.02,0,Wunderground v.1.15,2013-02-27 13:22:00,
2013-02-27 05:27:00,41.6,40.3,30.27,NNE,32,1.0,3.0,95,0.00,,,0.02,0,Wunderground v.1.15,2013-02-27 13:27:00,
2013-02-27 05:32:00,41.6,40.5,30.27,NE,39,2.0,2.0,96,0.00,,,0.02,0,Wunderground v.1.15,2013-02-27 13:32:00,
2013-02-27 05:37:00,41.6,40.5,30.27,NE,39,2.0,2.0,96,0.00,,,0.02,0,Wunderground v.1.15,2013-02-27 13:37:00,
2013-02-27 05:43:00,41.6,40.5,30.28,NE,39,1.0,2.0,96,0.00,,,0.02,0,Wunderground v.1.15,2013-02-27 13:43:00,
2013-02-27 05:48:00,41.6,40.5,30.28,NE,39,2.0,2.0,96,0.00,,,0.02,0,Wunderground v.1.15,2013-02-27 13:48:00,
2013-02-27 05:53:00,41.6,40.5,30.28,NE,39,1.0,2.0,96,0.00,,,0.02,0,Wunderground v.1.15,2013-02-27 13:53:00,
2013-02-27 05:58:00,41.6,40.5,30.28,NE,39,0.0,2.0,96,0.00,,,0.02,0,Wunderground v.1.15,2013-02-27 13:58:00,
2013-02-27 06:04:00,41.6,40.5,30.28,NE,39,0.0,3.0,96,0.00,,,0.02,0,Wunderground v.1.15,2013-02-27 14:04:00,
2013-02-27 06:09:00,41.6,40.5,30.29,NE,39,0.0,3.0,96,0.00,,,0.02,0,Wunderground v.1.15,2013-02-27 14:09:00,
2013-02-27 06:14:00,41.6,40.5,30.29,NE,39,0.0,0.0,96,0.00,,,0.02,0,Wunderground v.1.15,2013-02-27 14:14:00,
2013-02-27 06:19:00,41.6,40.5,30.28,NE,39,0.0,1.0,96,0.00,,,0.02,0,Wunderground v.1.15,2013-02-27 14:19:00,
2013-02-27 06:24:00,41.6,40.5,30.29,NE,39,0.0,0.0,96,0.00,,,0.02,0,Wunderground v.1.15,2013-02-27 14:24:00,
2013-02-27 06:29:00,41.6,40.5,30.29,NE,39,0.0,0.0,96,0.00,,,0.02,0,Wunderground v.1.15,2013-02-27 14:29:00,
2013-02-27 06:34:00,41.6,40.8,30.29,NE,39,0.0,0.0,97,0.00,,,0.02,0,Wunderground v.1.15,2013-02-27 14:34:00,
2013-02-27 06:40:00,41.6,40.8,30.29,NE,39,0.0,1.0,97,0.00,,,0.02,0,Wunderground v.1.15,2013-02-27 14:40:00,
2013-02-27 06:45:00,41.6,40.8,30.29,NE,39,0.0,1.0,97,0.00,,,0.02,0,Wunderground v.1.15,2013-02-27 14:45:00,
2013-02-27 06:51:00,41.6,40.8,30.29,NE,39,0.0,1.0,97,0.00,,,0.02,0,Wunderground v.1.15,2013-02-27 14:51:00,
2013-02-27 06:56:00,41.6,40.8,30.30,NE,39,0.0,1.0,97,0.00,,,0.02,0,Wunderground v.1.15,2013-02-27 14:56:00,
2013-02-27 07:02:00,41.6,40.8,30.29,NE,39,0.0,1.0,97,0.00,,,0.02,0,Wunderground v.1.15,2013-02-27 15:02:00,
2013-02-27 07:07:00,41.6,40.8,30.29,NE,39,0.0,1.0,97,0.00,,,0.02,5,Wunderground v.1.15,2013-02-27 15:07:00,
2013-02-27 07:12:00,41.6,40.8,30.29,NE,39,0.0,0.0,97,0.00,,,0.02,5,Wunderground v.1.15,2013-02-27 15:12:00,
2013-02-27 07:17:00,41.6,40.8,30.29,NE,39,1.0,1.0,97,0.00,,,0.03,11,Wunderground v.1.15,2013-02-27 15:17:00,
2013-02-27 07:22:00,41.6,40.8,30.29,NE,39,1.0,1.0,97,0.00,,,0.03,12,Wunderground v.1.15,2013-02-27 15:22:00,
2013-02-27 07:28:00,41.6,40.8,30.29,NE,40,1.0,2.0,97,0.00,,,0.03,16,Wunderground v.1.15,2013-02-27 15:28:00,
2013-02-27 07:33:00,41.6,40.8,30.29,NE,40,1.0,1.0,97,0.00,,,0.03,18,Wunderground v.1.15,2013-02-27 15:33:00,
2013-02-27 07:38:00,41.6,40.8,30.29,NE,39,0.0,1.0,97,0.00,,,0.03,21,Wunderground v.1.15,2013-02-27 15:38:00,
2013-02-27 07:43:00,41.6,40.8,30.29,NE,40,0.0,1.0,97,0.00,,,0.03,28,Wunderground v.1.15,2013-02-27 15:43:00,
2013-02-27 07:48:00,41.6,40.8,30.29,NE,40,1.0,2.0,97,0.00,,,0.03,47,Wunderground v.1.15,2013-02-27 15:48:00,
2013-02-27 07:54:00,41.8,41.0,30.29,NE,39,1.0,1.0,97,0.00,,,0.03,70,Wunderground v.1.15,2013-02-27 15:54:00,
2013-02-27 07:59:00,41.9,41.1,30.29,NE,40,0.0,1.0,97,0.00,,,0.03,118,Wunderground v.1.15,2013-02-27 15:59:00,
2013-02-27 08:04:00,42.1,41.3,30.29,NE,54,0.0,2.0,97,0.00,,,0.03,135,Wunderground v.1.15,2013-02-27 16:04:00,
2013-02-27 08:09:00,42.1,41.3,30.29,NE,54,0.0,2.0,97,0.00,,,0.03,132,Wunderground v.1.15,2013-02-27 16:09:00,
2013-02-27 08:14:00,42.2,41.4,30.29,NE,53,1.0,3.0,97,0.00,,,0.03,113,Wunderground v.1.15,2013-02-27 16:14:00,
2013-02-27 08:20:00,42.2,41.4,30.29,NE,54,1.0,1.0,97,0.00,,,0.03,98,Wunderground v.1.15,2013-02-27 16:20:00,
2013-02-27 08:25:00,42.2,41.4,30.28,NE,54,1.0,2.0,97,0.00,,,0.03,86,Wunderground v.1.15,2013-02-27 16:25:00,
2013-02-27 08:30:00,42.2,41.4,30.29,NE,54,0.0,0.0,97,0.00,,,0.03,97,Wunderground v.1.15,2013-02-27 16:30:00,
2013-02-27 08:35:00,42.3,41.5,30.28,NE,54,0.0,2.0,97,0.00,,,0.03,114,Wunderground v.1.15,2013-02-27 16:35:00,
2013-02-27 08:40:00,42.5,41.4,30.28,NE,54,0.0,0.0,96,0.00,,,0.03,123,Wunderground v.1.15,2013-02-27 16:40:00,
2013-02-27 08:46:00,42.6,41.5,30.28,NE,54,0.0,1.0,96,0.00,,,0.03,144,Wunderground v.1.15,2013-02-27 16:46:00,
2013-02-27 08:51:00,42.8,41.7,30.28,NE,54,0.0,0.0,96,0.00,,,0.03,156,Wunderground v.1.15,2013-02-27 16:51:00,
2013-02-27 08:56:00,43.1,42.0,30.28,NE,54,0.0,0.0,96,0.00,,,0.03,130,Wunderground v.1.15,2013-02-27 16:56:00,
2013-02-27 09:01:00,43.1,42.0,30.27,West,269,0.0,1.0,96,0.00,,,0.03,120,Wunderground v.1.15,2013-02-27 17:01:00,
2013-02-27 09:06:00,43.2,41.9,30.27,West,269,1.0,3.0,95,0.00,,,0.03,160,Wunderground v.1.15,2013-02-27 17:06:00,
2013-02-27 09:12:00,43.5,42.2,30.27,West,269,0.0,3.0,95,0.00,,,0.03,127,Wunderground v.1.15,2013-02-27 17:12:00,
2013-02-27 09:17:00,43.6,42.3,30.27,West,269,1.0,3.0,95,0.00,,,0.03,167,Wunderground v.1.15,2013-02-27 17:17:00,
2013-02-27 09:22:00,43.9,42.6,30.27,West,269,0.0,1.0,95,0.00,,,0.03,192,Wunderground v.1.15,2013-02-27 17:22:00,
2013-02-27 09:27:00,43.9,42.3,30.27,West,269,1.0,2.0,94,0.00,,,0.03,183,Wunderground v.1.15,2013-02-27 17:27:00,
2013-02-27 09:32:00,43.9,42.0,30.27,West,269,1.0,3.0,93,0.00,,,0.03,214,Wunderground v.1.15,2013-02-27 17:32:00,
2013-02-27 09:38:00,44.1,42.2,30.27,West,269,1.0,3.0,93,0.00,,,0.03,178,Wunderground v.1.15,2013-02-27 17:38:00,
2013-02-27 09:43:00,44.2,42.3,30.27,West,269,1.0,2.0,93,0.00,,,0.03,165,Wunderground v.1.15,2013-02-27 17:43:00,
2013-02-27 09:48:00,44.3,42.4,30.27,West,269,1.0,2.0,93,0.00,,,0.03,128,Wunderground v.1.15,2013-02-27 17:48:00,
2013-02-27 09:53:00,44.5,42.3,30.26,West,269,0.0,1.0,92,0.00,,,0.03,98,Wunderground v.1.15,2013-02-27 17:53:00,
2013-02-27 09:58:00,44.8,42.6,30.26,West,269,0.0,1.0,92,0.00,,,0.03,230,Wunderground v.1.15,2013-02-27 17:58:00,
2013-02-27 10:04:00,45.1,42.9,30.26,West,269,0.0,3.0,92,0.00,,,0.03,378,Wunderground v.1.15,2013-02-27 18:04:00,
2013-02-27 10:10:00,45.4,42.9,30.26,West,267,0.0,2.0,91,0.00,,,0.03,299,Wunderground v.1.15,2013-02-27 18:10:00,
2013-02-27 10:15:00,45.5,43.0,30.26,West,267,1.0,2.0,91,0.00,,,0.03,287,Wunderground v.1.15,2013-02-27 18:15:00,
2013-02-27 10:20:00,46.0,43.2,30.25,West,267,1.0,2.0,90,0.00,,,0.03,563,Wunderground v.1.15,2013-02-27 18:20:00,
2013-02-27 10:25:00,46.7,43.9,30.25,West,267,1.0,2.0,90,0.00,,,0.03,559,Wunderground v.1.15,2013-02-27 18:25:00,
2013-02-27 10:30:00,47.1,43.4,30.25,North,360,1.0,1.0,87,0.00,,,0.03,480,Wunderground v.1.15,2013-02-27 18:30:00,
2013-02-27 10:35:00,47.4,44.0,30.26,WSW,247,2.0,4.0,88,0.00,,,0.03,413,Wunderground v.1.15,2013-02-27 18:35:00,
2013-02-27 10:40:00,47.7,43.1,30.26,SW,234,3.0,3.0,84,0.00,,,0.03,348,Wunderground v.1.15,2013-02-27 18:40:00,
2013-02-27 10:45:00,48.0,43.1,30.26,SW,231,3.0,5.0,83,0.00,,,0.03,211,Wunderground v.1.15,2013-02-27 18:45:00,
2013-02-27 10:50:00,48.2,43.3,30.26,South,175,3.0,3.0,83,0.00,,,0.03,302,Wunderground v.1.15,2013-02-27 18:50:00,
2013-02-27 10:55:00,48.5,42.6,30.26,WSW,238,3.0,5.0,80,0.00,,,0.03,350,Wunderground v.1.15,2013-02-27 18:55:00,
2013-02-27 11:00:00,48.8,43.2,30.27,SW,234,4.0,5.0,81,0.00,,,0.03,353,Wunderground v.1.15,2013-02-27 19:00:00,
2013-02-27 11:05:00,49.4,43.5,30.27,SW,232,3.0,5.0,80,0.00,,,0.03,381,Wunderground v.1.15,2013-02-27 19:05:00,
2013-02-27 11:11:00,49.6,42.7,30.27,South,178,4.0,6.0,77,0.00,,,0.03,327,Wunderground v.1.15,2013-02-27 19:11:00,
2013-02-27 11:16:00,49.6,42.3,30.27,South,169,4.0,8.0,76,0.00,,,0.03,302,Wunderground v.1.15,2013-02-27 19:16:00,
2013-02-27 11:22:00,49.8,43.2,30.27,WSW,246,4.0,4.0,78,0.00,,,0.03,399,Wunderground v.1.15,2013-02-27 19:22:00,
2013-02-27 11:28:00,49.6,43.0,30.28,SW,226,4.0,9.0,78,0.00,,,0.03,357,Wunderground v.1.15,2013-02-27 19:28:00,
2013-02-27 11:33:00,49.6,43.7,30.28,WNW,295,5.0,6.0,80,0.00,,,0.03,285,Wunderground v.1.15,2013-02-27 19:33:00,
2013-02-27 11:38:00,49.5,42.9,30.28,WSW,249,6.0,7.0,78,0.00,,,0.03,352,Wunderground v.1.15,2013-02-27 19:38:00,
2013-02-27 11:43:00,49.8,43.2,30.28,SW,228,5.0,7.0,78,0.00,,,0.03,318,Wunderground v.1.15,2013-02-27 19:43:00,
2013-02-27 11:48:00,49.9,43.3,30.28,WSW,244,3.0,7.0,78,0.00,,,0.03,294,Wunderground v.1.15,2013-02-27 19:48:00,
2013-02-27 11:53:00,49.9,43.0,30.28,WSW,252,3.0,6.0,77,0.00,,,0.03,200,Wunderground v.1.15,2013-02-27 19:53:00,
2013-02-27 11:58:00,49.6,42.7,30.28,SW,229,4.0,6.0,77,0.00,,,0.03,193,Wunderground v.1.15,2013-02-27 19:58:00,
2013-02-27 12:03:00,49.6,42.3,30.28,South,180,4.0,6.0,76,0.00,,,0.03,188,Wunderground v.1.15,2013-02-27 20:03:00,
2013-02-27 12:08:00,49.6,42.7,30.28,South,171,3.0,6.0,77,0.00,,,0.03,276,Wunderground v.1.15,2013-02-27 20:08:00,
2013-02-27 12:13:00,49.8,42.5,30.28,SE,135,3.0,3.0,76,0.00,,,0.03,308,Wunderground v.1.15,2013-02-27 20:13:00,
2013-02-27 12:18:00,50.2,42.9,30.27,SSW,200,3.0,4.0,76,0.00,,,0.03,234,Wunderground v.1.15,2013-02-27 20:18:00,
2013-02-27 12:23:00,50.4,42.8,30.27,SSE,153,3.0,4.0,75,0.00,,,0.03,325,Wunderground v.1.15,2013-02-27 20:23:00,
2013-02-27 12:28:00,50.4,42.4,30.27,SW,235,3.0,4.0,74,0.00,,,0.03,432,Wunderground v.1.15,2013-02-27 20:28:00,
2013-02-27 12:33:00,50.8,42.8,30.27,WSW,248,3.0,6.0,74,0.00,,,0.03,425,Wunderground v.1.15,2013-02-27 20:33:00,
2013-02-27 12:38:00,51.0,42.6,30.27,SSW,195,4.0,6.0,73,0.00,,,0.03,422,Wunderground v.1.15,2013-02-27 20:38:00,
2013-02-27 12:43:00,51.1,42.4,30.27,WSW,240,5.0,10.0,72,0.00,,,0.03,413,Wunderground v.1.15,2013-02-27 20:43:00,
2013-02-27 12:49:00,51.0,42.3,30.27,South,184,5.0,10.0,72,0.00,,,0.03,281,Wunderground v.1.15,2013-02-27 20:49:00,
2013-02-27 12:54:00,51.0,42.6,30.27,SSE,158,5.0,7.0,73,0.00,,,0.03,272,Wunderground v.1.15,2013-02-27 20:54:00,
2013-02-27 12:59:00,50.8,42.1,30.27,SSW,192,5.0,7.0,72,0.00,,,0.03,193,Wunderground v.1.15,2013-02-27 20:59:00,
2013-02-27 13:04:00,50.5,42.2,30.27,South,190,6.0,8.0,73,0.00,,,0.03,232,Wunderground v.1.15,2013-02-27 21:04:00,
2013-02-27 13:09:00,50.5,42.2,30.27,SSE,161,4.0,8.0,73,0.00,,,0.03,253,Wunderground v.1.15,2013-02-27 21:09:00,
2013-02-27 13:15:00,50.7,42.4,30.27,South,180,4.0,7.0,73,0.00,,,0.03,278,Wunderground v.1.15,2013-02-27 21:15:00,
2013-02-27 13:20:00,50.8,42.5,30.27,SW,229,4.0,4.0,73,0.00,,,0.03,244,Wunderground v.1.15,2013-02-27 21:20:00,
2013-02-27 13:25:00,51.0,42.6,30.27,SW,227,4.0,6.0,73,0.00,,,0.03,214,Wunderground v.1.15,2013-02-27 21:25:00,
2013-02-27 13:30:00,51.1,42.4,30.26,South,186,3.0,7.0,72,0.00,,,0.03,216,Wunderground v.1.15,2013-02-27 21:30:00,
2013-02-27 13:36:00,51.0,42.3,30.26,SSW,192,4.0,8.0,72,0.00,,,0.03,185,Wunderground v.1.15,2013-02-27 21:36:00,
2013-02-27 13:41:00,51.0,42.3,30.26,South,176,4.0,5.0,72,0.00,,,0.03,160,Wunderground v.1.15,2013-02-27 21:41:00,
2013-02-27 13:46:00,50.8,42.1,30.27,SW,221,4.0,6.0,72,0.00,,,0.03,130,Wunderground v.1.15,2013-02-27 21:46:00,
2013-02-27 13:51:00,51.0,43.0,30.26,WSW,246,5.0,8.0,74,0.00,,,0.03,118,Wunderground v.1.15,2013-02-27 21:51:00,
2013-02-27 13:56:00,50.8,43.2,30.26,West,270,4.0,8.0,75,0.00,,,0.03,123,Wunderground v.1.15,2013-02-27 21:56:00,
2013-02-27 14:01:00,50.8,42.8,30.26,SW,234,4.0,13.0,74,0.00,,,0.03,160,Wunderground v.1.15,2013-02-27 22:01:00,
2013-02-27 14:07:00,50.7,42.7,30.26,SW,218,5.0,13.0,74,0.00,,,0.03,258,Wunderground v.1.15,2013-02-27 22:07:00,
2013-02-27 14:12:00,50.8,42.5,30.26,WSW,238,4.0,6.0,73,0.00,,,0.03,299,Wunderground v.1.15,2013-02-27 22:12:00,
2013-02-27 14:17:00,51.0,42.3,30.26,SW,217,4.0,8.0,72,0.00,,,0.03,299,Wunderground v.1.15,2013-02-27 22:17:00,
2013-02-27 14:22:00,51.0,42.6,30.25,West,277,5.0,5.0,73,0.00,,,0.03,295,Wunderground v.1.15,2013-02-27 22:22:00,
2013-02-27 14:27:00,51.1,42.7,30.25,South,172,4.0,6.0,73,0.00,,,0.03,232,Wunderground v.1.15,2013-02-27 22:27:00,
2013-02-27 14:33:00,51.0,41.9,30.25,SSW,194,5.0,8.0,71,0.00,,,0.03,165,Wunderground v.1.15,2013-02-27 22:33:00,
2013-02-27 14:38:00,50.8,41.7,30.25,South,187,5.0,8.0,71,0.00,,,0.03,192,Wunderground v.1.15,2013-02-27 22:38:00,
2013-02-27 14:43:00,50.7,42.0,30.25,South,178,4.0,6.0,72,0.00,,,0.03,227,Wunderground v.1.15,2013-02-27 22:43:00,
2013-02-27 14:48:00,50.7,42.0,30.25,South,186,4.0,6.0,72,0.00,,,0.03,213,Wunderground v.1.15,2013-02-27 22:48:00,
2013-02-27 14:53:00,51.0,42.3,30.25,SW,235,3.0,5.0,72,0.00,,,0.03,193,Wunderground v.1.15,2013-02-27 22:53:00,
2013-02-27 14:59:00,51.0,42.3,30.25,SW,225,3.0,6.0,72,0.00,,,0.03,156,Wunderground v.1.15,2013-02-27 22:59:00,
2013-02-27 15:04:00,50.8,42.1,30.25,SSE,166,2.0,13.0,72,0.00,,,0.03,91,Wunderground v.1.15,2013-02-27 23:04:00,
2013-02-27 15:09:00,51.1,42.4,30.26,SSE,163,2.0,13.0,72,0.00,,,0.03,60,Wunderground v.1.15,2013-02-27 23:09:00,
2013-02-27 15:14:00,51.1,42.4,30.25,WSW,254,2.0,3.0,72,0.00,,,0.03,79,Wunderground v.1.15,2013-02-27 23:14:00,
2013-02-27 15:19:00,51.0,42.6,30.26,WSW,248,1.0,4.0,73,0.00,,,0.03,74,Wunderground v.1.15,2013-02-27 23:19:00,
2013-02-27 15:25:00,51.0,42.6,30.26,West,262,3.0,6.0,73,0.00,,,0.03,77,Wunderground v.1.15,2013-02-27 23:25:00,
2013-02-27 15:30:00,50.8,42.8,30.26,WSW,253,4.0,5.0,74,0.00,,,0.03,62,Wunderground v.1.15,2013-02-27 23:30:00,
2013-02-27 15:35:00,50.7,42.4,30.26,SW,219,5.0,6.0,73,0.00,,,0.03,44,Wunderground v.1.15,2013-02-27 23:35:00,
2013-02-27 15:40:00,50.5,41.8,30.26,WSW,248,5.0,6.0,72,0.00,,,0.03,49,Wunderground v.1.15,2013-02-27 23:40:00,
2013-02-27 15:45:00,50.4,41.7,30.25,SSW,213,4.0,7.0,72,0.00,,,0.03,56,Wunderground v.1.15,2013-02-27 23:45:00,
2013-02-27 15:51:00,50.4,41.7,30.25,SSW,202,3.0,6.0,72,0.00,,,0.03,60,Wunderground v.1.15,2013-02-27 23:51:00,
2013-02-27 15:56:00,50.4,41.7,30.25,SW,231,3.0,6.0,72,0.00,,,0.03,90,Wunderground v.1.15,2013-02-27 23:56:00,
2013-02-27 16:01:00,50.4,42.1,30.25,SW,232,3.0,4.0,73,0.00,,,0.03,91,Wunderground v.1.15,2013-02-28 00:01:00,
2013-02-27 16:06:00,50.2,41.9,30.25,SW,234,2.0,6.0,73,0.00,,,0.03,67,Wunderground v.1.15,2013-02-28 00:06:00,
2013-02-27 16:11:00,50.1,41.8,30.25,SSW,213,3.0,4.0,73,0.00,,,0.03,60,Wunderground v.1.15,2013-02-28 00:11:00,
2013-02-27 16:16:00,49.8,41.8,30.25,SSW,213,2.0,4.0,74,0.00,,,0.03,69,Wunderground v.1.15,2013-02-28 00:16:00,
2013-02-27 16:22:00,49.6,42.0,30.25,SSW,213,1.0,1.0,75,0.00,,,0.03,46,Wunderground v.1.15,2013-02-28 00:22:00,
2013-02-27 16:27:00,49.5,41.9,30.25,SSW,213,1.0,2.0,75,0.00,,,0.03,39,Wunderground v.1.15,2013-02-28 00:27:00,
2013-02-27 16:32:00,49.4,42.1,30.25,SSW,192,1.0,1.0,76,0.00,,,0.03,39,Wunderground v.1.15,2013-02-28 00:32:00,
2013-02-27 16:37:00,49.4,42.1,30.25,SSW,192,0.0,1.0,76,0.00,,,0.03,35,Wunderground v.1.15,2013-02-28 00:37:00,
2013-02-27 16:42:00,49.2,42.3,30.25,SSW,192,0.0,0.0,77,0.00,,,0.03,23,Wunderground v.1.15,2013-02-28 00:42:00,
2013-02-27 16:48:00,49.2,42.3,30.25,SSW,192,0.0,0.0,77,0.00,,,0.03,14,Wunderground v.1.15,2013-02-28 00:48:00,
2013-02-27 16:53:00,49.1,42.2,30.25,SSW,192,0.0,0.0,77,0.00,,,0.03,14,Wunderground v.1.15,2013-02-28 00:53:00,
2013-02-27 16:58:00,49.2,42.6,30.25,SSW,192,0.0,2.0,78,0.00,,,0.03,18,Wunderground v.1.15,2013-02-28 00:58:00,
2013-02-27 17:03:00,49.4,42.5,30.25,SW,221,2.0,6.0,77,0.00,,,0.03,19,Wunderground v.1.15,2013-02-28 01:03:00,
2013-02-27 17:08:00,49.2,42.6,30.25,West,281,3.0,6.0,78,0.00,,,0.03,18,Wunderground v.1.15,2013-02-28 01:08:00,
2013-02-27 17:14:00,49.1,42.5,30.25,WSW,254,2.0,3.0,78,0.00,,,0.03,18,Wunderground v.1.15,2013-02-28 01:14:00,
2013-02-27 17:19:00,48.9,42.3,30.25,WSW,254,1.0,3.0,78,0.00,,,0.03,25,Wunderground v.1.15,2013-02-28 01:19:00,
2013-02-27 17:24:00,49.1,42.5,30.25,WSW,254,1.0,1.0,78,0.00,,,0.03,16,Wunderground v.1.15,2013-02-28 01:24:00,
2013-02-27 17:29:00,48.9,42.3,30.25,WSW,254,1.0,1.0,78,0.00,,,0.03,11,Wunderground v.1.15,2013-02-28 01:29:00,
2013-02-27 17:34:00,48.8,42.6,30.25,WSW,254,0.0,1.0,79,0.00,,,0.03,7,Wunderground v.1.15,2013-02-28 01:34:00,
2013-02-27 17:40:00,48.8,42.6,30.25,WSW,254,0.0,0.0,79,0.00,,,0.03,5,Wunderground v.1.15,2013-02-28 01:40:00,
2013-02-27 17:45:00,48.6,42.4,30.25,WSW,254,0.0,0.0,79,0.00,,,0.03,0,Wunderground v.1.15,2013-02-28 01:45:00,
2013-02-27 17:50:00,48.5,42.6,30.25,WSW,254,0.0,0.0,80,0.00,,,0.03,0,Wunderground v.1.15,2013-02-28 01:50:00,
2013-02-27 17:55:00,48.3,42.4,30.25,WSW,254,0.0,0.0,80,0.00,,,0.03,0,Wunderground v.1.15,2013-02-28 01:55:00,
2013-02-27 18:00:00,48.2,42.3,30.24,WSW,254,0.0,0.0,80,0.00,,,0.03,0,Wunderground v.1.15,2013-02-28 02:00:00,
2013-02-27 18:05:00,48.2,42.6,30.24,WSW,254,0.0,6.0,81,0.00,,,0.03,0,Wunderground v.1.15,2013-02-28 02:05:00,
2013-02-27 18:11:00,48.0,42.4,30.24,WSW,254,0.0,0.0,81,0.00,,,0.03,0,Wunderground v.1.15,2013-02-28 02:11:00,
2013-02-27 18:16:00,48.0,42.4,30.24,WSW,254,0.0,1.0,81,0.00,,,0.03,0,Wunderground v.1.15,2013-02-28 02:16:00,
2013-02-27 18:21:00,47.9,42.7,30.24,WSW,254,0.0,0.0,82,0.00,,,0.03,0,Wunderground v.1.15,2013-02-28 02:21:00,
2013-02-27 18:26:00,47.7,42.5,30.23,WSW,254,0.0,0.0,82,0.00,,,0.03,0,Wunderground v.1.15,2013-02-28 02:26:00,
2013-02-27 18:32:00,47.6,42.4,30.24,WSW,254,0.0,0.0,82,0.00,,,0.03,0,Wunderground v.1.15,2013-02-28 02:32:00,
2013-02-27 18:37:00,47.6,42.4,30.24,WSW,254,0.0,0.0,82,0.00,,,0.03,0,Wunderground v.1.15,2013-02-28 02:37:00,
2013-02-27 18:42:00,47.7,42.5,30.24,WSW,254,0.0,0.0,82,0.00,,,0.03,0,Wunderground v.1.15,2013-02-28 02:42:00,
2013-02-27 18:47:00,47.9,42.7,30.23,WSW,254,0.0,0.0,82,0.00,,,0.03,0,Wunderground v.1.15,2013-02-28 02:47:00,
2013-02-27 18:52:00,47.7,42.5,30.23,WSW,254,0.0,1.0,82,0.00,,,0.03,0,Wunderground v.1.15,2013-02-28 02:52:00,
2013-02-27 18:58:00,47.6,42.4,30.23,WSW,254,0.0,1.0,82,0.00,,,0.03,0,Wunderground v.1.15,2013-02-28 02:58:00,
2013-02-27 19:03:00,47.6,42.4,30.23,WSW,254,0.0,1.0,82,0.00,,,0.03,0,Wunderground v.1.15,2013-02-28 03:03:00,
2013-02-27 19:08:00,47.4,42.5,30.22,WSW,254,0.0,1.0,83,0.00,,,0.03,0,Wunderground v.1.15,2013-02-28 03:08:00,
2013-02-27 19:13:00,47.3,42.7,30.23,WSW,254,0.0,1.0,84,0.00,,,0.03,0,Wunderground v.1.15,2013-02-28 03:13:00,
2013-02-27 19:18:00,47.1,42.5,30.23,WSW,254,0.0,1.0,84,0.00,,,0.03,0,Wunderground v.1.15,2013-02-28 03:18:00,
2013-02-27 19:24:00,47.3,42.7,30.23,SSE,151,0.0,1.0,84,0.00,,,0.03,0,Wunderground v.1.15,2013-02-28 03:24:00,
2013-02-27 19:29:00,47.1,42.8,30.23,SSE,151,1.0,1.0,85,0.00,,,0.03,0,Wunderground v.1.15,2013-02-28 03:29:00,
2013-02-27 19:34:00,47.1,42.8,30.23,SSE,151,1.0,2.0,85,0.00,,,0.03,0,Wunderground v.1.15,2013-02-28 03:34:00,
2013-02-27 19:39:00,47.3,43.0,30.24,SSE,151,1.0,2.0,85,0.00,,,0.03,0,Wunderground v.1.15,2013-02-28 03:39:00,
2013-02-27 19:44:00,47.4,42.8,30.24,SSE,151,0.0,0.0,84,0.00,,,0.03,0,Wunderground v.1.15,2013-02-28 03:44:00,
2013-02-27 19:50:00,47.3,43.0,30.24,SSE,151,0.0,0.0,85,0.00,,,0.03,0,Wunderground v.1.15,2013-02-28 03:50:00,
2013-02-27 19:55:00,47.0,43.0,30.24,SSE,151,0.0,0.0,86,0.00,,,0.03,0,Wunderground v.1.15,2013-02-28 03:55:00,
2013-02-27 20:00:00,46.8,43.1,30.23,SSE,151,0.0,2.0,87,0.00,,,0.03,0,Wunderground v.1.15,2013-02-28 04:00:00,
2013-02-27 20:05:00,46.5,43.1,30.25,SSE,151,1.0,2.0,88,0.00,,,0.03,0,Wunderground v.1.15,2013-02-28 04:05:00,
2013-02-27 20:11:00,46.5,42.8,30.25,SSE,151,0.0,1.0,87,0.00,,,0.03,0,Wunderground v.1.15,2013-02-28 04:11:00,
2013-02-27 20:16:00,46.4,43.0,30.25,SSE,151,0.0,1.0,88,0.00,,,0.03,0,Wunderground v.1.15,2013-02-28 04:16:00,
2013-02-27 20:21:00,46.2,43.1,30.24,SSE,151,0.0,0.0,89,0.00,,,0.03,0,Wunderground v.1.15,2013-02-28 04:21:00,
2013-02-27 20:26:00,46.1,43.3,30.24,SSE,151,0.0,0.0,90,0.00,,,0.03,0,Wunderground v.1.15,2013-02-28 04:26:00,
2013-02-27 20:31:00,46.0,43.2,30.24,SSE,151,0.0,0.0,90,0.00,,,0.03,0,Wunderground v.1.15,2013-02-28 04:31:00,
2013-02-27 20:36:00,46.0,43.2,30.24,SSE,151,0.0,0.0,90,0.00,,,0.03,0,Wunderground v.1.15,2013-02-28 04:36:00,
2013-02-27 20:42:00,46.0,43.2,30.24,SSE,151,0.0,0.0,90,0.00,,,0.03,0,Wunderground v.1.15,2013-02-28 04:42:00,
2013-02-27 20:47:00,46.0,43.2,30.24,SSE,151,0.0,0.0,90,0.00,,,0.03,0,Wunderground v.1.15,2013-02-28 04:47:00,
2013-02-27 20:52:00,46.1,43.6,30.25,SSE,151,0.0,0.0,91,0.00,,,0.03,0,Wunderground v.1.15,2013-02-28 04:52:00,
2013-02-27 20:57:00,46.2,43.7,30.24,SSE,151,0.0,0.0,91,0.00,,,0.03,0,Wunderground v.1.15,2013-02-28 04:57:00,
2013-02-27 21:00:00,46.2,43.7,30.25,SSE,151,0.0,0.0,91,0.00,,,0.03,0,Wunderground v.1.15,2013-02-28 05:00:00,
2013-02-27 21:01:00,46.2,43.7,30.25,SSE,151,0.0,2.0,91,0.00,,,0.03,0,Wunderground v.1.15,2013-02-28 05:01:00,
2013-02-27 21:02:00,46.2,43.4,30.25,SSE,151,0.0,2.0,90,0.00,,,0.03,0,Wunderground v.1.15,2013-02-28 05:02:00,
2013-02-27 21:04:00,46.2,43.4,30.25,SSE,151,0.0,2.0,90,0.00,,,0.03,0,Wunderground v.1.15,2013-02-28 05:04:00,
2013-02-27 21:09:00,46.1,43.3,30.25,SSE,151,0.0,2.0,90,0.00,,,0.03,0,Wunderground v.1.15,2013-02-28 05:09:00,
2013-02-27 21:14:00,46.0,43.5,30.25,SSE,151,0.0,0.0,91,0.00,,,0.03,0,Wunderground v.1.15,2013-02-28 05:14:00,
2013-02-27 21:19:00,45.7,43.2,30.24,SSE,151,0.0,0.0,91,0.00,,,0.03,0,Wunderground v.1.15,2013-02-28 05:19:00,
2013-02-27 21:25:00,45.5,43.3,30.24,SSE,151,0.0,0.0,92,0.00,,,0.03,0,Wunderground v.1.15,2013-02-28 05:25:00,
2013-02-27 21:30:00,45.4,43.2,30.24,SSE,151,0.0,0.0,92,0.00,,,0.03,0,Wunderground v.1.15,2013-02-28 05:30:00,
2013-02-27 21:35:00,45.5,43.3,30.24,SSE,151,0.0,0.0,92,0.00,,,0.03,0,Wunderground v.1.15,2013-02-28 05:35:00,
2013-02-27 21:40:00,45.7,43.5,30.24,SSE,151,0.0,0.0,92,0.00,,,0.03,0,Wunderground v.1.15,2013-02-28 05:40:00,
2013-02-27 21:45:00,45.7,43.5,30.24,SSE,151,0.0,0.0,92,0.00,,,0.03,0,Wunderground v.1.15,2013-02-28 05:45:00,
2013-02-27 21:50:00,45.5,43.3,30.24,SSE,151,0.0,0.0,92,0.00,,,0.03,0,Wunderground v.1.15,2013-02-28 05:50:00,
2013-02-27 21:55:00,45.5,43.3,30.24,SSE,151,0.0,0.0,92,0.00,,,0.03,0,Wunderground v.1.15,2013-02-28 05:55:00,
2013-02-27 22:00:00,45.5,43.3,30.24,SSE,151,0.0,0.0,92,0.00,,,0.03,0,Wunderground v.1.15,2013-02-28 06:00:00,
2013-02-27 22:06:00,45.5,43.3,30.24,SE,142,0.0,3.0,92,0.00,,,0.03,0,Wunderground v.1.15,2013-02-28 06:06:00,
2013-02-27 22:11:00,45.5,43.6,30.24,SE,142,1.0,2.0,93,0.00,,,0.03,0,Wunderground v.1.15,2013-02-28 06:11:00,
2013-02-27 22:17:00,45.5,43.6,30.24,SE,142,1.0,2.0,93,0.00,,,0.03,0,Wunderground v.1.15,2013-02-28 06:17:00,
2013-02-27 22:22:00,45.4,43.5,30.24,SE,142,1.0,1.0,93,0.00,,,0.03,0,Wunderground v.1.15,2013-02-28 06:22:00,
2013-02-27 22:27:00,45.4,43.5,30.24,ESE,123,1.0,3.0,93,0.00,,,0.04,0,Wunderground v.1.15,2013-02-28 06:27:00,
2013-02-27 22:32:00,45.4,43.5,30.23,ESE,123,1.0,2.0,93,0.00,,,0.04,0,Wunderground v.1.15,2013-02-28 06:32:00,
2013-02-27 22:37:00,45.4,43.5,30.23,ESE,123,2.0,3.0,93,0.00,,,0.04,0,Wunderground v.1.15,2013-02-28 06:37:00,
2013-02-27 22:42:00,45.4,43.8,30.23,ENE,64,2.0,2.0,94,0.00,,,0.04,0,Wunderground v.1.15,2013-02-28 06:42:00,
2013-02-27 22:47:00,45.4,43.8,30.23,ENE,64,1.0,2.0,94,0.00,,,0.04,0,Wunderground v.1.15,2013-02-28 06:47:00,
2013-02-27 22:52:00,45.4,43.8,30.24,ENE,64,0.0,1.0,94,0.00,,,0.05,0,Wunderground v.1.15,2013-02-28 06:52:00,
2013-02-27 22:57:00,45.2,43.6,30.24,ENE,64,0.0,1.0,94,0.00,,,0.05,0,Wunderground v.1.15,2013-02-28 06:57:00,
2013-02-27 23:02:00,45.2,43.6,30.24,ENE,64,0.0,2.0,94,0.00,,,0.05,0,Wunderground v.1.15,2013-02-28 07:02:00,
2013-02-27 23:08:00,45.1,43.8,30.24,ENE,64,0.0,2.0,95,0.00,,,0.05,0,Wunderground v.1.15,2013-02-28 07:08:00,
2013-02-27 23:13:00,45.1,43.8,30.24,ENE,64,0.0,0.0,95,0.00,,,0.05,0,Wunderground v.1.15,2013-02-28 07:13:00,
2013-02-27 23:18:00,44.9,43.6,30.24,ENE,64,0.0,0.0,95,0.00,,,0.05,0,Wunderground v.1.15,2013-02-28 07:18:00,
2013-02-27 23:24:00,44.9,43.6,30.24,ENE,64,0.0,0.0,95,0.00,,,0.05,0,Wunderground v.1.15,2013-02-28 07:24:00,
2013-02-27 23:29:00,44.9,43.8,30.24,ENE,64,0.0,0.0,96,0.00,,,0.05,0,Wunderground v.1.15,2013-02-28 07:29:00,
2013-02-27 23:35:00,44.9,43.8,30.24,ENE,64,0.0,0.0,96,0.00,,,0.06,0,Wunderground v.1.15,2013-02-28 07:35:00,
2013-02-27 23:40:00,44.9,43.8,30.24,ENE,64,0.0,1.0,96,0.00,,,0.06,0,Wunderground v.1.15,2013-02-28 07:40:00,
2013-02-27 23:45:00,44.9,43.8,30.23,ENE,64,0.0,1.0,96,0.00,,,0.06,0,Wunderground v.1.15,2013-02-28 07:45:00,
2013-02-27 23:50:00,44.9,43.8,30.23,ENE,64,0.0,1.0,96,0.00,,,0.06,0,Wunderground v.1.15,2013-02-28 07:50:00,
2013-02-27 23:55:00,44.9,43.8,30.23,ENE,64,0.0,1.0,96,0.00,,,0.06,0,Wunderground v.1.15,2013-02-28 07:55:00,